Flag for India Weather past 2 weeks in Sawai Madhopur, Rajasthan, India

Now
88 °F

Passing clouds.


Feels Like: 85 °F
Forecast: 80 / 100 °F
Wind: 1 mph from North

Location: Jaipur / Sanganer


UV Index: 7 (High)

Visibility: 2 mi


Pressure: 29.86 "Hg

Humidity: 22%

Dew point: 45 °F

Location of Sawai MadhopurLocation

Historic Weather in Sawai Madhopur

°F

Sawai Madhopur temperature yesterday

Maximum temperature yesterday: 88 °F (at 4:00 PM)
Minimum temperature yesterday: 68 °F (at 8:00 AM)
Average temperature yesterday: 79 °F

Past Weeks' High & Low Weather Summary

 TemperatureHumidityPressure
High100 °F (Apr 13, 2:00 PM)83% (Apr 19, 5:30 AM)30.01 "Hg (Apr 19, 5:30 AM)
Low68 °F (Apr 19, 8:00 AM)6% (Apr 12, 2:00 PM)29.53 "Hg (Apr 17, 2:00 PM)
Average85 °F30%29.87 "Hg
* Reported Apr 5 6:30 PM — Apr 20 7:00 PM, Sawai Madhopur, Weather by CustomWeather, © 2014

Note: Actual official high and low records may vary slightly from our data, if they occured in-between our weather recording intervals... More about our weather records

Advertising

Historic Weather Conditions — Data for Previous 24 hours

 ConditionsComfort  
Time TempWeatherWind HumidityBarometerVisibility
7:00 PM
Apr 20
90 °FScattered clouds.3 mph18%29.86 "Hg2 mi
6:00 PM91 °FScattered clouds.3 mph16%29.86 "Hg2 mi
5:00 PM91 °FScattered clouds.5 mph12%29.86 "Hg3 mi
4:00 PM91 °FScattered clouds.7 mph17%29.86 "Hg3 mi
3:00 PM93 °FScattered clouds.7 mph17%29.89 "Hg3 mi
2:00 PM93 °FHaze.5 mph19%29.92 "Hg3 mi
1:00 PM90 °FHaze.5 mph24%29.95 "Hg3 mi
12:30 PM90 °FHaze.5 mph26%29.95 "Hg3 mi
12:00 PM90 °FHaze.2 mph29%29.98 "Hg2 mi
11:00 AM88 °FHaze.5 mph35%29.98 "Hg2 mi
10:00 AM82 °FHaze.6 mph45%29.98 "Hg2 mi
8:00 AM79 °FHaze.7 mph51%29.95 "Hg1 mi
7:00 AM73 °FHaze.5 mph65%29.92 "Hg1 mi
6:00 AM70 °FPassing clouds.No wind69%29.92 "Hg2 mi
5:00 AM72 °FPassing clouds.2 mph65%29.89 "Hg2 mi
2:00 AM75 °FPassing clouds.3 mph54%29.89 "Hg2 mi
1:00 AM75 °FPassing clouds.No wind57%29.92 "Hg2 mi
12:00 AM75 °FPassing clouds.No wind61%29.92 "Hg2 mi
10:00 PM
Apr 19
81 °FPassing clouds.No wind48%29.92 "Hg2 mi
9:00 PM82 °FPassing clouds.No wind42%29.92 "Hg2 mi
8:00 PM84 °FPassing clouds.1 mph35%29.89 "Hg2 mi
Weather by CustomWeather, © 2014

See weather overview